Location: Ajisawe
(8.4333°N, 4.3833°E)
Time: 22:11:26
(UTC+00:00)

Vanguard 1 Rocket - Pass Details

Date: 26 April 2021
Orbit: 652 x 4224 km, 34.3° (Epoch: 10 May)

Event Time Altitude Azimuth Distance (km) Brightness Sun altitude
Rises 04:53:10 0° 216° (SW) 8,385 11.8 -9.3°
Reaches altitude 10° 05:00:27 10° 207° (SSW) 7,428 11.6 -7.6°
Maximum altitude 05:21:49 33° 151° (SSE) 5,004 11.3 -2.5°
Drops below altitude 10° 05:36:42 10° 93° (E) 5,347 13.0 1.1°
Sets 05:40:39 0° 84° (E) 5,899 14.3 2.1°
